| time (UTC) | temp C | wind direction | speed KPH | gust KPH | rain 1hr cm | rain 24hr cm | rain mn cm | humidity % | barometer mb |
| 20260503232220 | -17 | 161 | 0.0 | 8.0 | 0.00 | 0.00 | 0.00 | ||
| 20260503231719 | -17 | 228 | 0.0 | 3.2 | 0.00 | 0.00 | 0.00 | ||
| 20260503231215 | -17 | 227 | 0.0 | 9.7 | 0.00 | 0.00 | 0.00 | ||
| 20260503230711 | -17 | 218 | 1.6 | 4.8 | 0.00 | 0.00 | 0.00 | 1020.6 | |
| 20260503230209 | -17 | 214 | 1.6 | 4.8 | 0.00 | 0.00 | 0.00 | 1020.6 | |
| 20260503225706 | -17 | 214 | 3.2 | 8.0 | 0.00 | 0.00 | 0.00 | 1020.6 | |
| 20260503225206 | -17 | 139 | 4.8 | 9.7 | 0.00 | 0.00 | 0.00 | 1020.6 | |
| 20260503224703 | -17 | 202 | 0.0 | 3.2 | 0.00 | 0.00 | 0.00 | 1020.6 | |
| 20260503224201 | -17 | 156 | 0.0 | 3.2 | 0.00 | 0.00 | 0.00 | 1020.6 | |
| 20260503223659 | -17 | 206 | 3.2 | 6.4 | 0.00 | 0.00 | 0.00 | 1020.6 | |
| 20260503223155 | -17 | 227 | 3.2 | 8.0 | 0.00 | 0.00 | 0.00 | 1020.6 | |
| 20260503222652 | -17 | 123 | 3.2 | 8.0 | 0.00 | 0.00 | 0.00 | 1020.6 | |
| 20260503222150 | -17 | 150 | 6.4 | 12.9 | 0.00 | 0.00 | 0.00 | 1020.6 | |
| 20260503221648 | -17 | 294 | 3.2 | 11.3 | 0.00 | 0.00 | 0.00 | 1020.6 | |
| 20260503221145 | -17 | 228 | 1.6 | 4.8 | 0.00 | 0.00 | 0.00 | 1020.6 | |
| 20260503220642 | -17 | 215 | 0.0 | 12.9 | 0.00 | 0.00 | 0.00 | 1020.7 | |
| 20260503220138 | -17 | 219 | 3.2 | 6.4 | 0.00 | 0.00 | 0.00 | 1020.6 | |
| 20260503215636 | -17 | 237 | 1.6 | 3.2 | 0.00 | 0.00 | 0.00 | 1021.1 | |
| 20260503215132 | -17 | 180 | 3.2 | 11.3 | 0.00 | 0.00 | 0.00 | 1021.1 | |
| 20260503214631 | -17 | 224 | 0.0 | 4.8 | 0.00 | 0.00 | 0.00 | 1021.1 | |
| 20260503214126 | -17 | 170 | 4.8 | 9.7 | 0.00 | 0.00 | 0.00 | 1021.1 | |
| 20260503213620 | -17 | 209 | 4.8 | 4.8 | 0.00 | 0.00 | 0.00 | 1021.2 | |
| 20260503213116 | -17 | 148 | 1.6 | 3.2 | 0.00 | 0.00 | 0.00 | 1021.3 | |
| 20260503212614 | -17 | 96 | 0.0 | 6.4 | 0.00 | 0.00 | 0.00 | 1021.3 | |
| 20260503212111 | -17 | 190 | 4.8 | 4.8 | 0.00 | 0.00 | 0.00 | 1021.8 | |
| 20260503211609 | -17 | 151 | 3.2 | 6.4 | 0.00 | 0.00 | 0.00 | 1021.8 | |
| 20260503211104 | -17 | 187 | 1.6 | 12.9 | 0.00 | 0.00 | 0.00 | 1021.8 | |
| 20260503210601 | -17 | 263 | 4.8 | 6.4 | 0.00 | 0.00 | 0.00 | 1021.8 | |
| 20260503210056 | -17 | 163 | 3.2 | 6.4 | 0.00 | 0.00 | 0.00 | 1021.8 | |
| 20260503205553 | -17 | 151 | 8.0 | 22.5 | 0.00 | 0.00 | 0.00 | 1021.8 | |
| 20260503205049 | -17 | 196 | 3.2 | 4.8 | 0.00 | 0.00 | 0.00 | 1022.2 | |
| 20260503204547 | -17 | 185 | 4.8 | 14.5 | 0.00 | 0.00 | 0.00 | 1022.2 | |
| 20260503204044 | -17 | 179 | 3.2 | 4.8 | 0.00 | 0.00 | 0.00 | 1022.4 | |
| 20260503203541 | -17 | 208 | 1.6 | 8.0 | 0.00 | 0.00 | 0.00 | 1022.4 | |
| 20260503203038 | -17 | 245 | 3.2 | 11.3 | 0.00 | 0.00 | 0.00 | 1022.4 | |
| 20260503202536 | -17 | 188 | 8.0 | 12.9 | 0.00 | 0.00 | 0.00 | 1022.6 | |
| 20260503202034 | -17 | 160 | 3.2 | 4.8 | 0.00 | 0.00 | 0.00 | 1022.7 | |
| 20260503201532 | -17 | 218 | 1.6 | 6.4 | 0.00 | 0.00 | 0.00 | 1022.9 | |
| 20260503201028 | -17 | 168 | 3.2 | 12.9 | 0.00 | 0.00 | 0.00 | 1022.9 | |
| 20260503200524 | -17 | 182 | 3.2 | 12.9 | 0.00 | 0.00 | 0.00 | 1022.9 | |
| 20260503200021 | -17 | 127 | 4.8 | 11.3 | 0.00 | 0.00 | 0.00 | 1022.9 | |
| 20260503195519 | -17 | 233 | 3.2 | 11.3 | 0.00 | 0.00 | 0.00 | 1022.9 | |
| 20260503195015 | -17 | 214 | 4.8 | 9.7 | 0.00 | 0.00 | 0.00 | 1022.9 | |
| 20260503194513 | -17 | 171 | 6.4 | 12.9 | 0.00 | 0.00 | 0.00 | 1022.9 | |
| 20260503194012 | -17 | 189 | 1.6 | 9.7 | 0.00 | 0.00 | 0.00 | 1023.3 | |
| 20260503193509 | -17 | 104 | 1.6 | 4.8 | 0.00 | 0.00 | 0.00 | 1023.3 | |
| 20260503193004 | -17 | 179 | 3.2 | 8.0 | 0.00 | 0.00 | 0.00 | 1023.2 | |
| 20260503192501 | -17 | 224 | 1.6 | 4.8 | 0.00 | 0.00 | 0.00 | 1023.3 | |
| 20260503191956 | -17 | 251 | 3.2 | 4.8 | 0.00 | 0.00 | 0.00 | 1023.3 | |
| 20260503191454 | -17 | 180 | 3.2 | 8.0 | 0.00 | 0.00 | 0.00 | 1023.5 | |
| 20260503190950 | -17 | 135 | 6.4 | 11.3 | 0.00 | 0.00 | 0.00 | 1023.5 | |
| 20260503190447 | -17 | 166 | 8.0 | 11.3 | 0.00 | 0.00 | 0.00 | 1023.8 | |
| 20260503185944 | -17 | 196 | 3.2 | 11.3 | 0.00 | 0.00 | 0.00 | 1023.7 | |
| 20260503185441 | -17 | 245 | 0.0 | 8.0 | 0.00 | 0.00 | 0.00 | 1023.8 | |
| 20260503184940 | -17 | 207 | 4.8 | 6.4 | 0.00 | 0.00 | 0.00 | 1023.9 | |
| 20260503184437 | -17 | 257 | 3.2 | 4.8 | 0.00 | 0.00 | 0.00 | 1024.0 | |
| 20260503183933 | -17 | 215 | 3.2 | 19.3 | 0.00 | 0.00 | 0.00 | 1024.2 | |
| 20260503183430 | -17 | 207 | 3.2 | 6.4 | 0.00 | 0.00 | 0.00 | 1024.3 | |
| 20260503182927 | -17 | 178 | 1.6 | 6.4 | 0.00 | 0.00 | 0.00 | 1024.3 | |
| 20260503182426 | -17 | 236 | 3.2 | 6.4 | 0.00 | 0.00 | 0.00 | 1024.4 | |
| 20260503181923 | -17 | 205 | 4.8 | 9.7 | 0.00 | 0.00 | 0.00 | 1024.6 | |
| 20260503181420 | -17 | 210 | 3.2 | 9.7 | 0.00 | 0.00 | 0.00 | 1024.6 | |
| 20260503180916 | -17 | 117 | 3.2 | 9.7 | 0.00 | 0.00 | 0.00 | 1024.6 | |
| 20260503180414 | -17 | 219 | 3.2 | 4.8 | 0.00 | 0.00 | 0.00 | 1025.0 | |
| 20260503175910 | -17 | 282 | 1.6 | 11.3 | 0.00 | 0.00 | 0.00 | 1024.9 | |
| 20260503175409 | -17 | 160 | 6.4 | 9.7 | 0.00 | 0.00 | 0.00 | 1024.9 | |
| 20260503174904 | -17 | 201 | 1.6 | 3.2 | 0.00 | 0.00 | 0.00 | 1025.1 | |
| 20260503174403 | -17 | 9 | 0.0 | 11.3 | 0.00 | 0.00 | 0.00 | 1025.1 | |
| 20260503173857 | -17 | 220 | 3.2 | 4.8 | 0.00 | 0.00 | 0.00 | 1025.2 | |
| 20260503173354 | -17 | 237 | 3.2 | 4.8 | 0.00 | 0.00 | 0.00 | 1025.2 | |
| 20260503172850 | -17 | 213 | 3.2 | 4.8 | 0.00 | 0.00 | 0.00 | 1025.3 | |
| 20260503172348 | -17 | 334 | 1.6 | 4.8 | 0.00 | 0.00 | 0.00 | 1025.5 | |
| 20260503171844 | -17 | 214 | 0.0 | 3.2 | 0.00 | 0.00 | 0.00 | 1025.6 | |
| 20260503171341 | -17 | 232 | 1.6 | 6.4 | 0.00 | 0.00 | 0.00 | 1025.5 | |
| 20260503170838 | -17 | 236 | 4.8 | 6.4 | 0.00 | 0.00 | 0.00 | 1025.6 | |
| 20260503170335 | -17 | 197 | 0.0 | 4.8 | 0.00 | 0.00 | 0.00 | 1025.9 | |
| 20260503150727 | -17 | 266 | 1.6 | 4.8 | 0.00 | 0.00 | 0.00 | 1026.4 | |
| 20260503150223 | -17 | 276 | 1.6 | 4.8 | 0.00 | 0.00 | 0.00 | 1026.6 | |
| 20260503140147 | -17 | 255 | 1.6 | 4.8 | 0.00 | 0.00 | 0.00 | 1026.2 | |
| 20260503131117 | -17 | 172 | 0.0 | 3.2 | 0.00 | 0.00 | 0.00 | 1026.0 | |
| 20260503130615 | -17 | 193 | 1.6 | 4.8 | 0.00 | 0.00 | 0.00 | 1026.0 | |
| 20260503130112 | -17 | 97 | 0.0 | 3.2 | 0.00 | 0.00 | 0.00 | 1026.1 | |
| 20260503110505 | -17 | 224 | 0.0 | 1.6 | 0.00 | 0.00 | 0.00 | 1024.9 | |
| 20260503090350 | -17 | 63 | 0.0 | 1.6 | 0.00 | 0.00 | 0.00 | 1024.6 | |
| 20260503081318 | -17 | 104 | 0.0 | 3.2 | 0.00 | 0.00 | 0.00 | 1024.5 | |
| 20260503080814 | -17 | 38 | 0.0 | 3.2 | 0.00 | 0.00 | 0.00 | 1024.6 | |
| 20260503080311 | -17 | 84 | 0.0 | 3.2 | 0.00 | 0.00 | 0.00 | 1024.6 | |
| 20260503072748 | -17 | 59 | 0.0 | 3.2 | 0.00 | 0.00 | 0.00 | 1024.8 | |
| 20260503072245 | -17 | 42 | 1.6 | 3.2 | 0.00 | 0.00 | 0.00 | 1024.5 | |
| 20260503071741 | -17 | 92 | 1.6 | 3.2 | 0.00 | 0.00 | 0.00 | 1024.8 | |
| 20260503071238 | -17 | 58 | 0.0 | 3.2 | 0.00 | 0.00 | 0.00 | 1024.6 | |
| 20260503070734 | -17 | 340 | 0.0 | 3.2 | 0.00 | 0.00 | 0.00 | 1024.6 | |
| 20260503070232 | -17 | 110 | 1.6 | 3.2 | 0.00 | 0.00 | 0.00 | 1024.9 | |
| 20260503060157 | -17 | 62 | 0.0 | 3.2 | 0.00 | 0.00 | 0.00 | 1024.9 | |
| 20260503054644 | -17 | 112 | 0.0 | 3.2 | 0.00 | 0.00 | 0.00 | 1025.0 | |
| 20260503054141 | -17 | 89 | 0.0 | 1.6 | 0.00 | 0.00 | 0.00 | 1024.9 | |
| 20260503053639 | -17 | 58 | 0.0 | 1.6 | 0.00 | 0.00 | 0.00 | 1025.0 | |
| 20260503053138 | -17 | 32 | 0.0 | 1.6 | 0.00 | 0.00 | 0.00 | 1025.0 | |
| 20260503052634 | -17 | 147 | 0.0 | 1.6 | 0.00 | 0.00 | 0.00 | 1025.2 | |
| 20260503052130 | -17 | 147 | 0.0 | 1.6 | 0.00 | 0.00 | 0.00 | 1025.2 | |
| 20260503051625 | -17 | 126 | 0.0 | 3.2 | 0.00 | 0.00 | 0.00 | 1025.1 | |
| 20260503051124 | -17 | 35 | 0.0 | 3.2 | 0.00 | 0.00 | 0.00 | 1025.0 | |
| 20260503050620 | -17 | 101 | 1.6 | 3.2 | 0.00 | 0.00 | 0.00 | 1025.0 | |
| 20260503050116 | -17 | 82 | 0.0 | 3.2 | 0.00 | 0.00 | 0.00 | 1024.8 | |
| 20260503045614 | -17 | 89 | 0.0 | 3.2 | 0.00 | 0.03 | 0.03 | 1024.9 | |
| 20260503045111 | -17 | 89 | 0.0 | 3.2 | 0.00 | 0.03 | 0.03 | 1024.8 | |
| 20260503044608 | -17 | 135 | 0.0 | 1.6 | 0.00 | 0.03 | 0.03 | 1024.8 | |
| 20260503044105 | -17 | 230 | 0.0 | 3.2 | 0.00 | 0.03 | 0.03 | 1024.8 | |
| 20260503043601 | -17 | 89 | 1.6 | 3.2 | 0.00 | 0.03 | 0.03 | 1024.7 | |
| 20260503043058 | -17 | 84 | 0.0 | 3.2 | 0.00 | 0.03 | 0.03 | 1024.8 | |
| 20260503042555 | -17 | 111 | 0.0 | 3.2 | 0.00 | 0.03 | 0.03 | 1024.6 | |
| 20260503042051 | -17 | 127 | 1.6 | 3.2 | 0.00 | 0.03 | 0.03 | 1024.7 | |
| 20260503041548 | -17 | 89 | 0.0 | 3.2 | 0.00 | 0.03 | 0.03 | 1024.5 | |
| 20260503041046 | -17 | 93 | 0.0 | 3.2 | 0.00 | 0.03 | 0.03 | 1024.7 | |
| 20260503040543 | -17 | 111 | 0.0 | 3.2 | 0.00 | 0.03 | 0.03 | 1024.8 | |
| 20260503040040 | -17 | 57 | 0.0 | 3.2 | 0.00 | 0.03 | 0.03 | 1024.5 | |
| 20260503035537 | -17 | 122 | 0.0 | 1.6 | 0.00 | 0.03 | 0.03 | 1024.7 | |
| 20260503035034 | -17 | 101 | 0.0 | 3.2 | 0.00 | 0.03 | 0.03 | 1024.7 | |
| 20260503034531 | -17 | 89 | 0.0 | 3.2 | 0.00 | 0.03 | 0.03 | 1024.6 | |
| 20260503034029 | -17 | 120 | 0.0 | 3.2 | 0.00 | 0.03 | 0.03 | 1024.5 | |
| 20260503033526 | -17 | 75 | 0.0 | 3.2 | 0.00 | 0.03 | 0.03 | 1024.4 | |
| 20260503033024 | -17 | 120 | 0.0 | 3.2 | 0.00 | 0.03 | 0.03 | 1024.3 | |
| 20260503032522 | -17 | 109 | 0.0 | 1.6 | 0.00 | 0.03 | 0.03 | 1024.3 | |
| 20260503032020 | -17 | 57 | 0.0 | 3.2 | 0.00 | 0.03 | 0.03 | 1024.5 | |
| 20260503031517 | -17 | 203 | 0.0 | 3.2 | 0.00 | 0.03 | 0.03 | 1024.3 | |
| 20260503031014 | -17 | 126 | 0.0 | 3.2 | 0.00 | 0.03 | 0.03 | 1024.2 | |
| 20260503030510 | -17 | 50 | 0.0 | 1.6 | 0.00 | 0.03 | 0.03 | 1024.3 | |
| 20260503030007 | -17 | 89 | 0.0 | 3.2 | 0.00 | 0.03 | 0.03 | 1024.3 | |
| 20260503025504 | -17 | 89 | 0.0 | 3.2 | 0.00 | 0.03 | 0.03 | 1024.2 | |
| 20260503025001 | -17 | 130 | 0.0 | 3.2 | 0.00 | 0.03 | 0.03 | 1024.1 | |
| 20260503024457 | -17 | 114 | 1.6 | 3.2 | 0.00 | 0.03 | 0.03 | 1024.1 | |
| 20260503023955 | -17 | 125 | 0.0 | 3.2 | 0.00 | 0.03 | 0.03 | 1023.9 | |
| 20260503023452 | -17 | 93 | 1.6 | 3.2 | 0.00 | 0.03 | 0.03 | 1023.8 | |
| 20260503022949 | -17 | 104 | 0.0 | 1.6 | 0.00 | 0.03 | 0.03 | 1023.8 | |
| 20260503022444 | -17 | 119 | 0.0 | 1.6 | 0.00 | 0.03 | 0.03 | 1023.5 | |
| 20260503021940 | -17 | 134 | 0.0 | 3.2 | 0.00 | 0.03 | 0.03 | 1023.5 | |
| 20260503021436 | -17 | 157 | 0.0 | 3.2 | 0.00 | 0.03 | 0.03 | 1023.5 | |
| 20260503020934 | -17 | 71 | 0.0 | 1.6 | 0.00 | 0.03 | 0.03 | 1023.4 | |
| 20260503020432 | -17 | 75 | 0.0 | 1.6 | 0.00 | 0.03 | 0.03 | 1023.5 | |
| 20260503015928 | -17 | 129 | 0.0 | 1.6 | 0.00 | 0.03 | 0.03 | 1023.5 | |
| 20260503015424 | -17 | 153 | 0.0 | 1.6 | 0.00 | 0.03 | 0.03 | 1023.5 | |
| 20260503014920 | -17 | 230 | 0.0 | 1.6 | 0.00 | 0.03 | 0.03 | 1023.3 | |
| 20260503014418 | -17 | 140 | 0.0 | 3.2 | 0.00 | 0.03 | 0.03 | 1023.3 | |
| 20260503013916 | -17 | 104 | 0.0 | 1.6 | 0.00 | 0.03 | 0.03 | 1023.4 | |
| 20260503013412 | -17 | 25 | 0.0 | 1.6 | 0.00 | 0.03 | 0.03 | 1023.4 | |
| 20260503012910 | -17 | 212 | 0.0 | 1.6 | 0.00 | 0.03 | 0.03 | 1023.3 | |
| 20260503012408 | -17 | 209 | 0.0 | 3.2 | 0.00 | 0.03 | 0.03 | 1023.3 | |
| 20260503011904 | -17 | 153 | 0.0 | 1.6 | 0.00 | 0.03 | 0.03 | 1023.1 | |
| 20260503011401 | -17 | 217 | 0.0 | 1.6 | 0.00 | 0.03 | 0.03 | 1023.1 | |
| 20260503010857 | -17 | 235 | 0.0 | 1.6 | 0.00 | 0.03 | 0.03 | 1023.1 | |
| 20260503010354 | -17 | 217 | 0.0 | 3.2 | 0.00 | 0.03 | 0.03 | 1022.9 | |
| 20260503005851 | -17 | 225 | 0.0 | 1.6 | 0.00 | 0.03 | 0.03 | 1023.1 | |
| 20260503005349 | -17 | 129 | 0.0 | 1.6 | 0.00 | 0.03 | 0.03 | 1023.0 | |
| 20260503004844 | -17 | 255 | 0.0 | 3.2 | 0.00 | 0.03 | 0.03 | 1023.1 | |
| 20260503004342 | -17 | 233 | 0.0 | 3.2 | 0.00 | 0.03 | 0.03 | 1022.7 | |
| 20260503003840 | -17 | 124 | 0.0 | 1.6 | 0.00 | 0.03 | 0.03 | 1022.9 | |
| 20260503003336 | -17 | 160 | 0.0 | 3.2 | 0.00 | 0.03 | 0.03 | 1022.9 | |
| 20260503002833 | -17 | 117 | 0.0 | 3.2 | 0.00 | 0.03 | 0.03 | 1022.7 | |
| 20260503002331 | -17 | 195 | 0.0 | 3.2 | 0.00 | 0.03 | 0.03 | 1022.8 | |
| 20260503001827 | -17 | 142 | 0.0 | 3.2 | 0.00 | 0.03 | 0.03 | 1022.9 | |
| 20260503001323 | -17 | 129 | 0.0 | 1.6 | 0.00 | 0.03 | 0.03 | 1022.8 | |
| 20260503000821 | -17 | 100 | 1.6 | 4.8 | 0.00 | 0.03 | 0.03 | 1022.9 | |
| 20260503000319 | -17 | 129 | 0.0 | 1.6 | 0.00 | 0.03 | 0.03 | 1022.7 | |
| 20260502235815 | -17 | 197 | 0.0 | 3.2 | 0.00 | 0.03 | 0.03 | 1022.7 | |
| 20260502235312 | -17 | 170 | 4.8 | 4.8 | 0.00 | 0.03 | 0.03 | 1022.6 | |
| 20260502234809 | -17 | 117 | 0.0 | 3.2 | 0.00 | 0.03 | 0.03 | 1022.8 | |
| 20260502234306 | -17 | 142 | 0.0 | 4.8 | 0.00 | 0.03 | 0.03 | 1022.6 | |
| 20260502233802 | -17 | 279 | 0.0 | 3.2 | 0.00 | 0.03 | 0.03 | 1022.6 | |
| 20260502233259 | -17 | 321 | 0.0 | 4.8 | 0.00 | 0.03 | 0.03 | 1022.6 | |
| 20260502232755 | -17 | 313 | 0.0 | 4.8 | 0.00 | 0.03 | 0.03 | 1022.6 |